QPF
0.00 0.00 0.01 0.01 0.03 0.04 0.05 0.05 0.05 0.05 0.02 0.01 0.01 0.01 0.02 0.02 0.04 0.02 0.04 0.05 0.02 0.02 0.03 0.04 0.05 0.03 0.03 0.03 0.02 0.02 0.04 0.03 0.02 0.02 0.03 0.03 0.03 0.03 0.03 0.04 0.07 0.06 0.04 0.02 0.02 0.03 0.03 0.03 0.03
0.00 0.01 0.01 0.02 0.03 0.04 0.05 0.05 0.03 0.02 0.01 0.00 0.00 0.00 0.01 0.01 0.02 0.02 0.04 0.04 0.01 0.01 0.02 0.03 0.05 0.04 0.04 0.03 0.02 0.02 0.04 0.03 0.02 0.02 0.03 0.03 0.03 0.03 0.03 0.03 0.07 0.09 0.07 0.04 0.04 0.03 0.03 0.02 0.02
0.01 0.01 0.01 0.03 0.03 0.04 0.05 0.05 0.02 0.01 0.01 0.00 0.00 0.01 0.01 0.02 0.02 0.02 0.02 0.02 0.01 0.01 0.01 0.03 0.05 0.04 0.04 0.04 0.04 0.03 0.03 0.02 0.02 0.02 0.02 0.03 0.03 0.03 0.03 0.03 0.06 0.10 0.10 0.07 0.04 0.04 0.02 0.02 0.04
0.01 0.01 0.02 0.02 0.03 0.03 0.03 0.04 0.02 0.01 0.00 0.01 0.01 0.01 0.01 0.02 0.02 0.03 0.02 0.01 0.00 0.01 0.01 0.03 0.05 0.03 0.03 0.05 0.05 0.02 0.02 0.01 0.02 0.02 0.03 0.03 0.03 0.03 0.03 0.03 0.04 0.06 0.07 0.06 0.04 0.05 0.04 0.03 0.04
0.01 0.02 0.02 0.02 0.04 0.03 0.02 0.02 0.01 0.01 0.01 0.01 0.01 0.02 0.04 0.03 0.02 0.02 0.02 0.01 0.00 0.00 0.00 0.01 0.04 0.03 0.03 0.04 0.04 0.02 0.02 0.01 0.01 0.02 0.03 0.03 0.03 0.04 0.03 0.03 0.03 0.04 0.05 0.05 0.04 0.04 0.04 0.04 0.04
0.01 0.02 0.02 0.02 0.05 0.05 0.04 0.01 0.01 0.01 0.01 0.02 0.01 0.03 0.07 0.05 0.03 0.01 0.01 0.01 0.00 0.00 0.00 0.01 0.02 0.03 0.04 0.02 0.04 0.03 0.02 0.02 0.02 0.02 0.02 0.04 0.05 0.04 0.03 0.03 0.04 0.05 0.05 0.04 0.03 0.03 0.03 0.04 0.04
0.01 0.02 0.02 0.02 0.04 0.05 0.04 0.01 0.01 0.00 0.01 0.01 0.01 0.02 0.04 0.03 0.03 0.02 0.01 0.00 0.00 0.00 0.00 0.00 0.01 0.01 0.02 0.02 0.01 0.02 0.03 0.02 0.03 0.02 0.03 0.04 0.04 0.04 0.06 0.06 0.07 0.06 0.05 0.03 0.03 0.03 0.03 0.03 0.03
0.02 0.04 0.03 0.02 0.03 0.05 0.03 0.01 0.01 0.00 0.01 0.01 0.01 0.01 0.02 0.02 0.04 0.03 0.02 0.01 0.00 0.00 0.00 0.00 0.00 0.00 0.00 0.01 0.01 0.01 0.02 0.02 0.03 0.03 0.05 0.06 0.07 0.08 0.09 0.07 0.06 0.06 0.05 0.04 0.03 0.03 0.03 0.02 0.03
0.01 0.02 0.03 0.04 0.04 0.03 0.03 0.02 0.01 0.00 0.01 0.01 0.01 0.01 0.01 0.03 0.04 0.03 0.03 0.03 0.01 0.00 0.00 0.01 0.00 0.01 0.00 0.00 0.01 0.01 0.01 0.02 0.01 0.02 0.03 0.05 0.05 0.04 0.04 0.04 0.04 0.04 0.04 0.03 0.03 0.03 0.03 0.02 0.03
0.01 0.01 0.04 0.04 0.03 0.02 0.02 0.02 0.02 0.01 0.01 0.01 0.02 0.02 0.02 0.03 0.04 0.04 0.03 0.03 0.03 0.01 0.01 0.01 0.00 0.00 0.00 0.00 0.00 0.01 0.01 0.00 0.00 0.00 0.01 0.01 0.02 0.03 0.02 0.03 0.03 0.03 0.03 0.03 0.03 0.03 0.02 0.01 0.01
0.01 0.02 0.02 0.02 0.01 0.01 0.01 0.01 0.01 0.01 0.01 0.01 0.02 0.02 0.02 0.03 0.03 0.02 0.02 0.02 0.02 0.02 0.02 0.01 0.01 0.01 0.01 0.00 0.01 0.01 0.01 0.01 0.01 0.01 0.00 0.00 0.01 0.01 0.01 0.02 0.02 0.02 0.01 0.02 0.02 0.01 0.01 0.01 0.01
0.00 0.01 0.01 0.02 0.02 0.02 0.01 0.01 0.01 0.01 0.01 0.01 0.02 0.01 0.02 0.01 0.03 0.03 0.02 0.02 0.02 0.02 0.02 0.02 0.01 0.01 0.01 0.00 0.01 0.01 0.01 0.01 0.02 0.01 0.01 0.00 0.00 0.01 0.01 0.01 0.01 0.01 0.01 0.01 0.02 0.01 0.01 0.01 0.01
0.00 0.01 0.01 0.02 0.02 0.01 0.01 0.01 0.01 0.01 0.01 0.01 0.01 0.02 0.03 0.01 0.03 0.04 0.04 0.03 0.03 0.02 0.02 0.02 0.02 0.02 0.02 0.02 0.02 0.02 0.01 0.01 0.01 0.01 0.01 0.01 0.01 0.01 0.01 0.01 0.01 0.01 0.01 0.01 0.01 0.00 0.01 0.01 0.01
0.01 0.01 0.01 0.01 0.02 0.01 0.02 0.02 0.01 0.02 0.02 0.02 0.02 0.03 0.03 0.02 0.03 0.04 0.04 0.03 0.03 0.02 0.02 0.02 0.02 0.02 0.02 0.03 0.03 0.02 0.01 0.01 0.01 0.01 0.02 0.02 0.02 0.01 0.01 0.01 0.01 0.01 0.01 0.01 0.00 0.00 0.00 0.01 0.02
0.01 0.02 0.03 0.02 0.03 0.01 0.01 0.02 0.02 0.02 0.02 0.02 0.02 0.01 0.01 0.02 0.03 0.03 0.03 0.05 0.03 0.02 0.02 0.03 0.03 0.02 0.03 0.04 0.04 0.02 0.01 0.01 0.01 0.01 0.01 0.01 0.01 0.01 0.01 0.01 0.01 0.02 0.02 0.01 0.01 0.01 0.01 0.01 0.02
0.01 0.02 0.04 0.03 0.02 0.02 0.01 0.02 0.04 0.02 0.02 0.02 0.02 0.01 0.01 0.01 0.01 0.02 0.03 0.05 0.05 0.04 0.03 0.02 0.02 0.02 0.03 0.04 0.03 0.03 0.02 0.02 0.02 0.01 0.00 0.01 0.01 0.01 0.02 0.02 0.03 0.04 0.03 0.01 0.01 0.01 0.00 0.01 0.02
0.02 0.02 0.03 0.04 0.02 0.02 0.01 0.02 0.02 0.03 0.02 0.02 0.02 0.02 0.01 0.02 0.03 0.03 0.03 0.04 0.04 0.03 0.03 0.02 0.01 0.01 0.01 0.01 0.02 0.02 0.02 0.01 0.01 0.01 0.01 0.01 0.01 0.01 0.01 0.02 0.02 0.02 0.01 0.01 0.00 0.00 0.01 0.01 0.02
0.02 0.02 0.02 0.03 0.02 0.01 0.02 0.02 0.02 0.03 0.02 0.01 0.01 0.02 0.01 0.01 0.02 0.03 0.02 0.02 0.01 0.01 0.02 0.02 0.01 0.01 0.01 0.01 0.02 0.02 0.02 0.01 0.01 0.02 0.01 0.01 0.01 0.00 0.00 0.01 0.01 0.01 0.01 0.01 0.01 0.00 0.01 0.01 0.02
0.01 0.03 0.02 0.02 0.01 0.01 0.02 0.02 0.01 0.02 0.02 0.02 0.02 0.02 0.01 0.01 0.02 0.02 0.02 0.02 0.01 0.01 0.01 0.00 0.01 0.01 0.01 0.02 0.02 0.02 0.01 0.01 0.01 0.01 0.02 0.01 0.01 0.01 0.00 0.00 0.00 0.00 0.00 0.00 0.01 0.01 0.01 0.01 0.02
0.01 0.02 0.02 0.02 0.02 0.02 0.02 0.01 0.01 0.01 0.01 0.02 0.02 0.02 0.02 0.01 0.01 0.02 0.02 0.01 0.01 0.01 0.01 0.00 0.01 0.01 0.01 0.01 0.02 0.02 0.02 0.02 0.02 0.02 0.01 0.01 0.01 0.01 0.00 0.00 0.00 0.00 0.00 0.00 0.01 0.01 0.01 0.01 0.01
0.01 0.01 0.02 0.02 0.03 0.02 0.02 0.01 0.02 0.01 0.01 0.01 0.02 0.02 0.02 0.02 0.02 0.01 0.01 0.01 0.01 0.02 0.02 0.01 0.01 0.01 0.01 0.01 0.01 0.01 0.01 0.02 0.03 0.03 0.02 0.03 0.02 0.01 0.01 0.01 0.00 0.01 0.00 0.00 0.01 0.01 0.01 0.01 0.01
0.02 0.01 0.01 0.02 0.02 0.02 0.02 0.02 0.01 0.02 0.01 0.01 0.02 0.02 0.01 0.01 0.02 0.01 0.01 0.00 0.01 0.02 0.03 0.03 0.02 0.01 0.01 0.00 0.00 0.01 0.01 0.02 0.02 0.03 0.02 0.03 0.04 0.02 0.01 0.01 0.01 0.01 0.01 0.00 0.01 0.01 0.01 0.00 0.00
0.01 0.01 0.01 0.01 0.01 0.01 0.01 0.01 0.01 0.02 0.02 0.02 0.02 0.02 0.01 0.01 0.01 0.01 0.01 0.00 0.01 0.01 0.01 0.02 0.01 0.01 0.01 0.02 0.02 0.01 0.01 0.01 0.01 0.01 0.02 0.03 0.04 0.03 0.01 0.01 0.01 0.01 0.01 0.01 0.01 0.01 0.01 0.00 0.00
0.03 0.01 0.01 0.01 0.01 0.01 0.01 0.01 0.01 0.01 0.02 0.03 0.02 0.01 0.02 0.02 0.02 0.01 0.01 0.01 0.01 0.01 0.01 0.00 0.01 0.01 0.01 0.01 0.01 0.01 0.00 0.00 0.00 0.01 0.01 0.01 0.02 0.04 0.04 0.03 0.02 0.02 0.02 0.01 0.01 0.02 0.02 0.01 0.01
0.03 0.04 0.03 0.02 0.02 0.01 0.01 0.02 0.03 0.02 0.02 0.02 0.02 0.02 0.02 0.02 0.01 0.01 0.01 0.01 0.01 0.01 0.01 0.01 0.00 0.01 0.01 0.01 0.01 0.01 0.01 0.01 0.01 0.01 0.01 0.01 0.01 0.02 0.06 0.04 0.03 0.02 0.02 0.02 0.03 0.02 0.04 0.04 0.03
0.01 0.03 0.04 0.03 0.03 0.02 0.02 0.04 0.05 0.03 0.03 0.03 0.02 0.02 0.02 0.02 0.01 0.01 0.01 0.02 0.01 0.01 0.01 0.01 0.01 0.01 0.02 0.01 0.01 0.02 0.02 0.03 0.03 0.02 0.02 0.01 0.01 0.01 0.01 0.02 0.03 0.03 0.02 0.02 0.03 0.04 0.05 0.04 0.03
0.01 0.02 0.02 0.03 0.03 0.04 0.05 0.05 0.05 0.03 0.02 0.02 0.02 0.02 0.02 0.02 0.01 0.01 0.01 0.01 0.01 0.01 0.01 0.01 0.02 0.02 0.02 0.02 0.02 0.02 0.02 0.02 0.01 0.01 0.01 0.01 0.01 0.01 0.01 0.01 0.02 0.02 0.02 0.02 0.03 0.03 0.03 0.02 0.02
0.01 0.01 0.02 0.03 0.04 0.06 0.07 0.07 0.06 0.04 0.02 0.02 0.02 0.02 0.02 0.02 0.01 0.01 0.01 0.02 0.02 0.02 0.02 0.02 0.03 0.03 0.03 0.03 0.03 0.02 0.03 0.02 0.02 0.03 0.02 0.01 0.01 0.01 0.01 0.01 0.02 0.02 0.02 0.02 0.02 0.02 0.02 0.02 0.01
0.01 0.01 0.01 0.02 0.02 0.03 0.05 0.07 0.04 0.03 0.03 0.02 0.01 0.01 0.01 0.01 0.01 0.01 0.01 0.02 0.02 0.02 0.03 0.03 0.03 0.03 0.03 0.03 0.02 0.01 0.02 0.03 0.04 0.04 0.03 0.02 0.02 0.03 0.02 0.02 0.01 0.01 0.01 0.01 0.02 0.02 0.01 0.01 0.01
0.01 0.01 0.02 0.03 0.04 0.04 0.08 0.06 0.02 0.02 0.03 0.02 0.01 0.01 0.01 0.01 0.01 0.02 0.02 0.02 0.02 0.03 0.04 0.04 0.03 0.02 0.03 0.03 0.03 0.02 0.02 0.03 0.03 0.03 0.03 0.04 0.03 0.02 0.02 0.02 0.01 0.01 0.02 0.01 0.01 0.02 0.01 0.00 0.00
MSLP
1009.99 1010.92 1012.04 1013.20 1014.26 1015.09 1015.61 1015.80 1015.72 1015.47 1015.18 1014.97 1014.92 1015.06 1015.33 1015.66 1015.95 1016.08 1016.02 1015.74 1015.28 1014.72 1014.16 1013.69 1013.37 1013.21 1013.19 1013.25 1013.33 1013.37 1013.34 1013.23 1013.07 1012.89 1012.74 1012.66 1012.66 1012.73 1012.84 1012.97 1013.08 1013.13 1013.13 1013.08 1012.99 1012.90 1012.81 1012.74 1012.68
1010.37 1011.44 1012.63 1013.77 1014.73 1015.39 1015.71 1015.70 1015.44 1015.08 1014.73 1014.53 1014.53 1014.74 1015.08 1015.48 1015.81 1015.97 1015.92 1015.66 1015.23 1014.71 1014.21 1013.80 1013.54 1013.43 1013.44 1013.51 1013.58 1013.60 1013.54 1013.40 1013.21 1013.02 1012.86 1012.77 1012.76 1012.81 1012.91 1013.02 1013.11 1013.16 1013.17 1013.13 1013.06 1012.99 1012.91 1012.85 1012.81
1010.89 1012.06 1013.25 1014.31 1015.11 1015.56 1015.66 1015.45 1015.05 1014.59 1014.23 1014.06 1014.12 1014.40 1014.81 1015.26 1015.62 1015.80 1015.75 1015.51 1015.11 1014.64 1014.20 1013.86 1013.67 1013.61 1013.65 1013.74 1013.80 1013.81 1013.72 1013.56 1013.36 1013.15 1012.99 1012.88 1012.85 1012.89 1012.96 1013.05 1013.13 1013.18 1013.19 1013.18 1013.14 1013.10 1013.06 1013.03 1013.01
1011.51 1012.71 1013.85 1014.78 1015.39 1015.63 1015.53 1015.15 1014.63 1014.14 1013.78 1013.66 1013.79 1014.14 1014.60 1015.07 1015.43 1015.60 1015.56 1015.31 1014.94 1014.53 1014.15 1013.89 1013.75 1013.75 1013.82 1013.91 1013.97 1013.96 1013.87 1013.70 1013.50 1013.29 1013.12 1013.01 1012.97 1012.99 1013.04 1013.11 1013.18 1013.23 1013.27 1013.29 1013.29 1013.30 1013.30 1013.30 1013.30
1012.16 1013.34 1014.38 1015.15 1015.57 1015.62 1015.34 1014.85 1014.28 1013.79 1013.48 1013.43 1013.63 1014.03 1014.51 1014.97 1015.31 1015.44 1015.37 1015.13 1014.77 1014.40 1014.09 1013.88 1013.80 1013.83 1013.92 1014.02 1014.07 1014.05 1013.96 1013.80 1013.61 1013.42 1013.27 1013.18 1013.14 1013.15 1013.19 1013.25 1013.31 1013.37 1013.43 1013.48 1013.53 1013.59 1013.63 1013.67 1013.69
1012.75 1013.86 1014.76 1015.37 1015.62 1015.51 1015.13 1014.60 1014.04 1013.61 1013.39 1013.43 1013.69 1014.11 1014.59 1015.00 1015.27 1015.35 1015.24 1014.97 1014.64 1014.30 1014.04 1013.88 1013.84 1013.89 1013.98 1014.06 1014.11 1014.09 1014.00 1013.86 1013.71 1013.57 1013.46 1013.40 1013.38 1013.39 1013.43 1013.48 1013.53 1013.60 1013.67 1013.76 1013.85 1013.95 1014.03 1014.09 1014.13
1013.18 1014.18 1014.95 1015.40 1015.50 1015.31 1014.89 1014.38 1013.91 1013.59 1013.49 1013.62 1013.94 1014.37 1014.81 1015.15 1015.34 1015.34 1015.17 1014.88 1014.55 1014.25 1014.03 1013.91 1013.89 1013.95 1014.03 1014.09 1014.12 1014.09 1014.02 1013.92 1013.82 1013.75 1013.70 1013.69 1013.70 1013.73 1013.76 1013.80 1013.85 1013.91 1013.99 1014.10 1014.22 1014.34 1014.46 1014.54 1014.58
1013.43 1014.30 1014.91 1015.22 1015.23 1014.99 1014.61 1014.19 1013.85 1013.68 1013.72 1013.95 1014.31 1014.73 1015.11 1015.36 1015.45 1015.37 1015.15 1014.85 1014.54 1014.27 1014.09 1014.00 1014.00 1014.04 1014.10 1014.14 1014.14 1014.11 1014.05 1014.00 1013.97 1013.96 1013.99 1014.04 1014.09 1014.14 1014.17 1014.20 1014.23 1014.27 1014.35 1014.46 1014.59 1014.74 1014.87 1014.96 1015.00
1013.50 1014.22 1014.68 1014.87 1014.82 1014.59 1014.28 1013.99 1013.82 1013.82 1014.00 1014.32 1014.72 1015.11 1015.41 1015.57 1015.57 1015.41 1015.15 1014.85 1014.57 1014.35 1014.21 1014.16 1014.17 1014.20 1014.23 1014.23 1014.21 1014.17 1014.13 1014.12 1014.15 1014.22 1014.32 1014.43 1014.52 1014.58 1014.61 1014.62 1014.63 1014.65 1014.71 1014.81 1014.95 1015.10 1015.25 1015.35 1015.40
1013.45 1014.01 1014.33 1014.42 1014.32 1014.13 1013.92 1013.79 1013.79 1013.95 1014.26 1014.65 1015.06 1015.41 1015.64 1015.71 1015.63 1015.42 1015.15 1014.87 1014.63 1014.46 1014.38 1014.37 1014.39 1014.41 1014.42 1014.39 1014.34 1014.29 1014.27 1014.30 1014.38 1014.51 1014.67 1014.82 1014.95 1015.02 1015.05 1015.04 1015.02 1015.02 1015.06 1015.15 1015.29 1015.45 1015.61 1015.73 1015.79
1013.37 1013.78 1013.96 1013.96 1013.84 1013.68 1013.58 1013.59 1013.74 1014.05 1014.45 1014.90 1015.31 1015.61 1015.77 1015.77 1015.62 1015.38 1015.11 1014.86 1014.68 1014.58 1014.56 1014.59 1014.63 1014.65 1014.64 1014.59 1014.52 1014.47 1014.46 1014.51 1014.63 1014.80 1015.00 1015.19 1015.34 1015.42 1015.44 1015.42 1015.38 1015.36 1015.39 1015.48 1015.63 1015.80 1015.98 1016.13 1016.21
1013.36 1013.62 1013.68 1013.59 1013.45 1013.34 1013.32 1013.44 1013.72 1014.13 1014.60 1015.07 1015.45 1015.71 1015.80 1015.73 1015.55 1015.29 1015.04 1014.83 1014.71 1014.67 1014.71 1014.78 1014.85 1014.88 1014.86 1014.80 1014.73 1014.68 1014.67 1014.74 1014.88 1015.07 1015.29 1015.49 1015.65 1015.74 1015.76 1015.74 1015.70 1015.68 1015.72 1015.82 1015.99 1016.19 1016.40 1016.59 1016.71
1013.49 1013.62 1013.56 1013.41 1013.25 1013.16 1013.20 1013.41 1013.77 1014.23 1014.74 1015.19 1015.55 1015.75 1015.78 1015.66 1015.45 1015.19 1014.95 1014.79 1014.71 1014.72 1014.80 1014.91 1015.00 1015.05 1015.04 1014.99 1014.93 1014.88 1014.88 1014.95 1015.09 1015.29 1015.50 1015.70 1015.86 1015.96 1015.99 1015.99 1015.97 1015.99 1016.05 1016.19 1016.38 1016.63 1016.88 1017.11 1017.28
1013.78 1013.79 1013.65 1013.44 1013.26 1013.19 1013.28 1013.54 1013.93 1014.42 1014.91 1015.34 1015.64 1015.79 1015.77 1015.62 1015.38 1015.12 1014.90 1014.75 1014.70 1014.73 1014.83 1014.95 1015.06 1015.13 1015.15 1015.13 1015.09 1015.06 1015.07 1015.14 1015.27 1015.44 1015.63 1015.82 1015.97 1016.08 1016.14 1016.17 1016.21 1016.27 1016.39 1016.58 1016.83 1017.12 1017.42 1017.70 1017.91
1014.17 1014.10 1013.89 1013.65 1013.47 1013.42 1013.54 1013.81 1014.22 1014.69 1015.15 1015.53 1015.79 1015.88 1015.83 1015.65 1015.40 1015.13 1014.90 1014.75 1014.68 1014.71 1014.79 1014.92 1015.03 1015.13 1015.18 1015.20 1015.20 1015.21 1015.23 1015.30 1015.41 1015.55 1015.71 1015.86 1016.01 1016.12 1016.22 1016.31 1016.41 1016.55 1016.73 1016.98 1017.28 1017.62 1017.97 1018.29 1018.55
1014.56 1014.43 1014.19 1013.95 1013.79 1013.77 1013.91 1014.19 1014.58 1015.02 1015.44 1015.77 1015.97 1016.03 1015.95 1015.77 1015.51 1015.23 1014.99 1014.80 1014.70 1014.68 1014.73 1014.83 1014.94 1015.06 1015.16 1015.23 1015.29 1015.33 1015.39 1015.45 1015.53 1015.63 1015.75 1015.87 1016.00 1016.13 1016.26 1016.41 1016.59 1016.81 1017.07 1017.38 1017.73 1018.10 1018.48 1018.83 1019.14
1014.82 1014.65 1014.42 1014.22 1014.11 1014.14 1014.30 1014.59 1014.96 1015.35 1015.70 1015.98 1016.14 1016.18 1016.10 1015.92 1015.67 1015.40 1015.13 1014.91 1014.76 1014.67 1014.67 1014.72 1014.83 1014.96 1015.10 1015.24 1015.36 1015.46 1015.55 1015.62 1015.68 1015.74 1015.80 1015.89 1016.00 1016.13 1016.31 1016.52 1016.77 1017.05 1017.38 1017.74 1018.12 1018.51 1018.90 1019.27 1019.61
1014.83 1014.67 1014.49 1014.37 1014.34 1014.43 1014.63 1014.91 1015.24 1015.57 1015.86 1016.08 1016.21 1016.24 1016.18 1016.03 1015.82 1015.56 1015.30 1015.05 1014.84 1014.69 1014.62 1014.63 1014.71 1014.86 1015.05 1015.25 1015.45 1015.62 1015.74 1015.82 1015.87 1015.89 1015.91 1015.95 1016.04 1016.18 1016.38 1016.64 1016.95 1017.30 1017.66 1018.05 1018.44 1018.82 1019.21 1019.58 1019.92
1014.54 1014.43 1014.35 1014.33 1014.41 1014.58 1014.81 1015.08 1015.36 1015.61 1015.82 1015.98 1016.07 1016.11 1016.09 1016.00 1015.86 1015.66 1015.43 1015.17 1014.93 1014.73 1014.60 1014.56 1014.63 1014.79 1015.02 1015.30 1015.57 1015.80 1015.97 1016.07 1016.11 1016.10 1016.08 1016.09 1016.16 1016.29 1016.51 1016.81 1017.15 1017.53 1017.92 1018.31 1018.68 1019.03 1019.39 1019.73 1020.08
1013.98 1013.96 1014.00 1014.13 1014.34 1014.58 1014.84 1015.07 1015.27 1015.42 1015.52 1015.60 1015.67 1015.72 1015.75 1015.76 1015.71 1015.61 1015.45 1015.23 1014.99 1014.76 1014.60 1014.53 1014.58 1014.76 1015.03 1015.36 1015.70 1016.00 1016.22 1016.35 1016.39 1016.37 1016.32 1016.31 1016.35 1016.49 1016.71 1017.03 1017.39 1017.78 1018.17 1018.52 1018.85 1019.16 1019.46 1019.77 1020.10
1013.25 1013.36 1013.57 1013.85 1014.18 1014.49 1014.75 1014.92 1015.00 1015.01 1014.98 1014.96 1014.97 1015.04 1015.14 1015.26 1015.35 1015.38 1015.32 1015.19 1014.99 1014.78 1014.60 1014.51 1014.56 1014.74 1015.04 1015.41 1015.81 1016.17 1016.45 1016.61 1016.67 1016.65 1016.60 1016.57 1016.61 1016.74 1016.97 1017.29 1017.66 1018.04 1018.40 1018.72 1018.99 1019.23 1019.47 1019.73 1020.04
1012.53 1012.79 1013.17 1013.62 1014.06 1014.42 1014.64 1014.70 1014.63 1014.46 1014.26 1014.11 1014.06 1014.12 1014.29 1014.52 1014.77 1014.96 1015.05 1015.03 1014.92 1014.75 1014.59 1014.50 1014.53 1014.71 1015.03 1015.43 1015.87 1016.28 1016.60 1016.81 1016.90 1016.91 1016.87 1016.85 1016.89 1017.03 1017.26 1017.58 1017.94 1018.30 1018.63 1018.90 1019.11 1019.28 1019.45 1019.65 1019.93
1011.97 1012.40 1012.97 1013.56 1014.08 1014.44 1014.59 1014.52 1014.25 1013.87 1013.48 1013.18 1013.03 1013.08 1013.31 1013.66 1014.06 1014.42 1014.67 1014.79 1014.78 1014.67 1014.54 1014.46 1014.49 1014.66 1014.97 1015.38 1015.84 1016.29 1016.65 1016.91 1017.04 1017.09 1017.09 1017.09 1017.16 1017.31 1017.55 1017.87 1018.22 1018.55 1018.85 1019.07 1019.22 1019.33 1019.44 1019.59 1019.83
1011.68 1012.30 1013.02 1013.73 1014.30 1014.64 1014.68 1014.43 1013.95 1013.35 1012.75 1012.29 1012.04 1012.06 1012.33 1012.78 1013.31 1013.84 1014.25 1014.51 1014.60 1014.57 1014.48 1014.40 1014.41 1014.56 1014.85 1015.25 1015.72 1016.18 1016.59 1016.88 1017.07 1017.17 1017.22 1017.27 1017.36 1017.54 1017.79 1018.11 1018.45 1018.77 1019.04 1019.23 1019.34 1019.40 1019.46 1019.56 1019.75
1011.71 1012.49 1013.34 1014.12 1014.70 1014.98 1014.89 1014.47 1013.78 1012.96 1012.17 1011.55 1011.20 1011.18 1011.47 1012.00 1012.65 1013.30 1013.85 1014.23 1014.42 1014.46 1014.39 1014.32 1014.31 1014.43 1014.69 1015.06 1015.52 1015.99 1016.41 1016.75 1016.99 1017.15 1017.25 1017.35 1017.49 1017.69 1017.96 1018.29 1018.63 1018.94 1019.19 1019.35 1019.44 1019.48 1019.51 1019.58 1019.73
1011.99 1012.89 1013.83 1014.64 1015.19 1015.38 1015.16 1014.57 1013.71 1012.71 1011.76 1011.02 1010.59 1010.54 1010.84 1011.41 1012.14 1012.89 1013.54 1014.00 1014.27 1014.35 1014.31 1014.24 1014.21 1014.29 1014.51 1014.85 1015.28 1015.74 1016.17 1016.55 1016.83 1017.04 1017.20 1017.35 1017.53 1017.76 1018.05 1018.38 1018.72 1019.02 1019.27 1019.44 1019.53 1019.56 1019.58 1019.63 1019.75
1012.38 1013.36 1014.32 1015.12 1015.61 1015.71 1015.37 1014.65 1013.66 1012.55 1011.51 1010.70 1010.23 1010.16 1010.46 1011.06 1011.82 1012.62 1013.32 1013.84 1014.15 1014.27 1014.25 1014.17 1014.12 1014.17 1014.35 1014.65 1015.05 1015.49 1015.93 1016.32 1016.64 1016.90 1017.10 1017.30 1017.51 1017.76 1018.06 1018.39 1018.72 1019.03 1019.28 1019.47 1019.57 1019.63 1019.66 1019.71 1019.82
1012.74 1013.73 1014.66 1015.39 1015.80 1015.80 1015.38 1014.59 1013.55 1012.40 1011.35 1010.54 1010.07 1010.00 1010.31 1010.91 1011.68 1012.48 1013.19 1013.73 1014.06 1014.19 1014.19 1014.11 1014.06 1014.09 1014.24 1014.51 1014.88 1015.31 1015.74 1016.13 1016.47 1016.75 1016.99 1017.21 1017.44 1017.70 1018.00 1018.32 1018.66 1018.97 1019.23 1019.43 1019.58 1019.67 1019.74 1019.81 1019.91
1012.91 1013.84 1014.69 1015.31 1015.62 1015.55 1015.08 1014.28 1013.27 1012.18 1011.19 1010.45 1010.03 1010.00 1010.31 1010.90 1011.64 1012.41 1013.10 1013.62 1013.95 1014.10 1014.11 1014.06 1014.02 1014.05 1014.20 1014.45 1014.80 1015.20 1015.62 1016.01 1016.35 1016.64 1016.89 1017.12 1017.35 1017.61 1017.90 1018.21 1018.54 1018.85 1019.12 1019.35 1019.53 1019.67 1019.78 1019.89 1020.01
1012.83 1013.64 1014.35 1014.84 1015.05 1014.91 1014.43 1013.69 1012.77 1011.81 1010.96 1010.35 1010.03 1010.05 1010.38 1010.94 1011.63 1012.35 1012.98 1013.47 1013.79 1013.95 1013.99 1013.98 1013.98 1014.04 1014.20 1014.46 1014.79 1015.18 1015.57 1015.95 1016.28 1016.56 1016.81 1017.04 1017.27 1017.51 1017.79 1018.08 1018.39 1018.69 1018.97 1019.22 1019.44 1019.63 1019.79 1019.94 1020.08
Thickness
5805 5804 5801 5788 5762 5742 5737 5747 5757 5760 5762 5768 5772 5767 5757 5750 5744 5737 5756 5765 5765 5764 5764 5764 5764 5764 5765 5765 5765 5765 5765 5764 5764 5764 5763 5762 5762 5761 5761 5761 5761 5762 5761 5759 5759 5758 5758 5758 5758
5804 5803 5792 5772 5744 5726 5733 5749 5754 5762 5768 5773 5771 5766 5757 5752 5757 5755 5758 5762 5763 5762 5762 5762 5762 5763 5763 5763 5763 5763 5762 5762 5762 5761 5760 5760 5759 5758 5758 5758 5759 5760 5758 5756 5756 5755 5755 5755 5755
5804 5800 5777 5757 5740 5731 5737 5752 5759 5769 5776 5773 5764 5761 5755 5751 5757 5757 5760 5762 5761 5760 5760 5760 5760 5760 5760 5760 5760 5760 5760 5759 5759 5758 5758 5757 5756 5755 5755 5755 5755 5754 5753 5752 5752 5752 5752 5752 5752
5796 5783 5768 5747 5738 5746 5750 5756 5765 5766 5769 5770 5762 5751 5753 5760 5760 5760 5762 5761 5759 5758 5757 5757 5757 5757 5757 5757 5757 5757 5756 5756 5756 5755 5754 5753 5752 5752 5751 5751 5750 5750 5749 5748 5748 5748 5748 5748 5748
5789 5768 5749 5736 5740 5750 5758 5764 5767 5761 5760 5761 5758 5745 5745 5758 5763 5761 5760 5758 5756 5755 5755 5754 5754 5754 5754 5754 5754 5753 5753 5753 5752 5751 5751 5750 5749 5748 5748 5747 5746 5746 5745 5745 5744 5744 5744 5744 5744
5771 5757 5735 5728 5738 5750 5759 5765 5764 5757 5756 5757 5754 5743 5741 5755 5757 5756 5757 5756 5754 5753 5752 5751 5751 5751 5751 5751 5750 5750 5749 5749 5748 5747 5747 5746 5746 5745 5744 5743 5742 5741 5741 5740 5740 5740 5740 5740 5740
5762 5747 5734 5734 5736 5743 5756 5765 5759 5754 5752 5754 5756 5740 5740 5748 5754 5755 5754 5753 5751 5750 5749 5748 5748 5748 5748 5747 5747 5746 5746 5745 5744 5744 5743 5742 5742 5741 5740 5739 5738 5738 5737 5736 5736 5736 5736 5736 5735
5770 5748 5737 5734 5735 5740 5758 5763 5761 5757 5753 5760 5757 5740 5736 5746 5753 5752 5751 5749 5747 5746 5746 5745 5745 5745 5744 5744 5743 5743 5742 5741 5740 5740 5739 5738 5737 5736 5736 5735 5734 5734 5733 5732 5732 5732 5731 5731 5731
5772 5739 5728 5735 5737 5742 5756 5756 5758 5762 5756 5754 5754 5750 5750 5752 5751 5747 5743 5742 5742 5742 5742 5742 5741 5741 5741 5740 5739 5739 5738 5737 5736 5735 5735 5734 5732 5732 5731 5731 5730 5729 5729 5729 5728 5728 5727 5727 5726
5757 5731 5738 5750 5750 5748 5753 5754 5754 5749 5744 5742 5744 5748 5750 5748 5745 5741 5738 5736 5736 5736 5737 5739 5738 5737 5737 5737 5736 5735 5734 5733 5732 5731 5730 5729 5728 5727 5727 5726 5726 5725 5725 5724 5724 5724 5723 5723 5722
5756 5741 5749 5754 5757 5755 5751 5751 5755 5743 5734 5737 5738 5740 5743 5742 5739 5737 5736 5736 5735 5736 5735 5736 5735 5735 5734 5733 5732 5731 5730 5729 5728 5727 5726 5725 5723 5723 5722 5722 5721 5721 5720 5720 5719 5719 5718 5718 5717
5753 5753 5755 5754 5759 5754 5750 5749 5745 5742 5739 5745 5745 5744 5741 5738 5735 5735 5734 5734 5734 5734 5733 5734 5733 5732 5731 5729 5728 5727 5726 5725 5724 5723 5723 5721 5719 5718 5718 5717 5717 5716 5716 5715 5715 5714 5713 5713 5713
5749 5749 5755 5756 5756 5753 5750 5744 5741 5738 5744 5745 5743 5740 5737 5735 5734 5735 5735 5734 5733 5731 5731 5731 5731 5729 5728 5726 5726 5725 5723 5722 5721 5720 5719 5718 5716 5715 5714 5713 5713 5712 5712 5711 5710 5710 5709 5708 5708
5750 5750 5749 5751 5750 5749 5742 5738 5737 5734 5741 5739 5737 5734 5734 5733 5733 5732 5731 5729 5729 5728 5728 5728 5728 5727 5725 5724 5722 5721 5720 5719 5718 5717 5716 5715 5713 5712 5711 5710 5709 5709 5708 5707 5706 5705 5705 5704 5704
5752 5740 5738 5742 5744 5743 5739 5725 5729 5735 5737 5733 5731 5731 5731 5731 5731 5729 5729 5728 5728 5727 5727 5726 5725 5724 5722 5721 5719 5718 5717 5716 5715 5714 5713 5712 5711 5710 5708 5707 5706 5705 5704 5703 5702 5701 5701 5699 5698
5740 5727 5717 5732 5739 5740 5728 5710 5726 5734 5731 5726 5726 5726 5727 5728 5729 5729 5729 5728 5727 5725 5724 5723 5723 5721 5719 5717 5716 5715 5713 5712 5711 5710 5709 5709 5708 5707 5705 5704 5702 5701 5701 5700 5698 5697 5695 5693 5692
5718 5707 5709 5721 5735 5734 5723 5713 5725 5731 5729 5724 5724 5724 5724 5724 5726 5727 5728 5727 5726 5724 5722 5720 5719 5717 5716 5714 5713 5711 5710 5709 5707 5707 5706 5705 5704 5704 5702 5700 5699 5698 5697 5695 5694 5692 5690 5688 5687
5704 5706 5709 5713 5727 5727 5718 5715 5723 5728 5727 5723 5722 5721 5721 5721 5723 5726 5726 5726 5724 5722 5720 5718 5716 5714 5713 5711 5708 5706 5705 5704 5704 5703 5702 5701 5701 5700 5699 5697 5696 5695 5693 5691 5690 5687 5686 5684 5683
5717 5711 5708 5715 5729 5722 5715 5714 5719 5724 5723 5720 5718 5718 5718 5720 5723 5724 5724 5723 5720 5718 5717 5715 5713 5711 5709 5706 5703 5700 5698 5698 5699 5699 5698 5698 5697 5697 5696 5694 5692 5691 5689 5687 5686 5684 5681 5679 5679
5716 5708 5706 5715 5726 5720 5711 5711 5719 5722 5722 5722 5720 5718 5718 5717 5718 5719 5720 5719 5718 5715 5714 5712 5710 5709 5707 5705 5703 5700 5697 5696 5695 5695 5695 5694 5694 5693 5692 5691 5689 5687 5685 5683 5682 5680 5677 5675 5675
5712 5706 5706 5708 5716 5718 5710 5702 5709 5717 5722 5723 5722 5721 5720 5719 5717 5716 5716 5716 5715 5714 5712 5711 5708 5707 5705 5704 5701 5697 5694 5691 5690 5690 5690 5690 5690 5690 5689 5688 5686 5684 5682 5680 5678 5677 5674 5670 5670
5702 5716 5715 5711 5700 5690 5700 5678 5698 5708 5711 5716 5718 5718 5718 5719 5718 5716 5716 5714 5714 5714 5713 5710 5707 5705 5703 5701 5698 5694 5689 5686 5686 5687 5687 5687 5687 5686 5685 5684 5683 5681 5680 5678 5676 5674 5672 5669 5666
5711 5721 5715 5710 5698 5688 5691 5680 5688 5703 5702 5710 5715 5717 5718 5718 5718 5716 5716 5715 5714 5713 5711 5709 5706 5703 5701 5699 5697 5693 5689 5687 5686 5685 5684 5683 5683 5683 5682 5681 5680 5678 5677 5675 5673 5671 5670 5668 5665
5721 5713 5705 5696 5686 5673 5685 5679 5681 5694 5704 5710 5714 5717 5717 5717 5717 5716 5716 5714 5712 5711 5709 5707 5703 5700 5699 5697 5695 5692 5688 5685 5683 5681 5680 5679 5679 5679 5679 5679 5677 5676 5674 5673 5671 5669 5668 5666 5664
5709 5686 5668 5665 5660 5665 5687 5682 5683 5704 5714 5715 5715 5715 5716 5716 5714 5713 5711 5710 5709 5708 5706 5704 5701 5698 5696 5694 5692 5690 5688 5685 5682 5680 5678 5677 5676 5676 5676 5676 5675 5674 5672 5671 5669 5667 5665 5664 5662
5699 5686 5663 5654 5654 5663 5680 5676 5688 5710 5716 5718 5717 5715 5714 5712 5712 5712 5711 5710 5708 5707 5705 5702 5699 5696 5694 5691 5689 5688 5687 5684 5682 5680 5678 5676 5676 5676 5676 5675 5674 5672 5670 5669 5667 5665 5663 5662 5661
5693 5684 5684 5668 5665 5659 5665 5678 5692 5706 5708 5709 5709 5709 5708 5709 5709 5710 5709 5708 5707 5705 5703 5701 5698 5694 5691 5689 5688 5686 5684 5682 5680 5679 5678 5676 5675 5675 5674 5673 5672 5671 5669 5667 5665 5662 5661 5660 5659
5702 5691 5673 5664 5653 5646 5657 5664 5670 5686 5693 5699 5701 5701 5702 5704 5705 5705 5704 5703 5703 5702 5701 5699 5697 5693 5691 5688 5686 5684 5682 5681 5679 5677 5675 5674 5674 5673 5672 5670 5670 5668 5667 5665 5663 5661 5659 5658 5656
5690 5685 5675 5661 5658 5646 5643 5655 5686 5688 5692 5693 5695 5698 5699 5700 5701 5701 5700 5700 5699 5698 5696 5694 5692 5690 5688 5686 5684 5682 5680 5678 5677 5675 5674 5673 5672 5671 5669 5668 5667 5666 5664 5663 5660 5658 5657 5655 5653
5692 5685 5673 5657 5653 5651 5644 5654 5692 5692 5693 5693 5693 5696 5697 5697 5698 5697 5696 5695 5693 5691 5690 5689 5688 5686 5685 5684 5682 5680 5678 5676 5674 5673 5672 5671 5670 5669 5667 5666 5664 5663 5661 5660 5658 5656 5654 5652 5650